Time,TemperatureF,DewpointF,PressureIn,WindDirection,WindDirectionDegrees,WindSpeedMPH,WindSpeedGustMPH,Humidity,HourlyPrecipIn,Conditions,Clouds,dailyrainin,SoftwareType,DateUTC
2013-05-07 00:05:00,59.4,54.6,29.90,SSE,155,3.0,3.0,84,0.00,,,0.00,Wunderground v.1.15,2013-05-07 07:05:00,
2013-05-07 00:15:00,59.2,54.4,29.91,South,171,1.0,1.0,84,0.00,,,0.00,Wunderground v.1.15,2013-05-07 07:15:00,
2013-05-07 00:20:00,59.2,54.4,29.91,South,171,1.0,2.0,84,0.00,,,0.00,Wunderground v.1.15,2013-05-07 07:20:00,
2013-05-07 00:30:00,59.0,54.5,29.90,SSE,168,1.0,1.0,85,0.00,,,0.00,Wunderground v.1.15,2013-05-07 07:30:00,
2013-05-07 00:35:00,59.0,54.5,29.90,SSE,168,1.0,1.0,85,0.00,,,0.00,Wunderground v.1.15,2013-05-07 07:35:00,
2013-05-07 00:45:00,59.0,54.5,29.90,SSE,168,0.0,1.0,85,0.00,,,0.00,Wunderground v.1.15,2013-05-07 07:45:00,
2013-05-07 00:50:00,59.0,54.5,29.90,SSE,168,0.0,1.0,85,0.00,,,0.00,Wunderground v.1.15,2013-05-07 07:50:00,
2013-05-07 00:55:00,59.0,54.5,29.90,SSE,168,0.0,0.0,85,0.00,,,0.00,Wunderground v.1.15,2013-05-07 07:55:00,
2013-05-07 01:01:00,58.9,54.4,29.90,SSE,168,0.0,1.0,85,0.00,,,0.00,Wunderground v.1.15,2013-05-07 08:01:00,
2013-05-07 01:05:00,58.9,54.4,29.90,SSE,168,1.0,1.0,85,0.00,,,0.00,Wunderground v.1.15,2013-05-07 08:05:00,
2013-05-07 01:15:00,58.7,54.2,29.89,SSE,168,1.0,1.0,85,0.00,,,0.00,Wunderground v.1.15,2013-05-07 08:15:00,
2013-05-07 01:20:00,58.7,54.2,29.89,SSE,168,0.0,1.0,85,0.00,,,0.00,Wunderground v.1.15,2013-05-07 08:20:00,
2013-05-07 01:30:00,58.7,54.5,29.89,SSE,168,0.0,0.0,86,0.00,,,0.00,Wunderground v.1.15,2013-05-07 08:30:00,
2013-05-07 01:45:00,58.6,54.4,29.89,SSE,168,0.0,0.0,86,0.00,,,0.00,Wunderground v.1.15,2013-05-07 08:45:00,
2013-05-07 01:55:00,58.7,54.5,29.89,SSE,168,0.0,0.0,86,0.00,,,0.00,Wunderground v.1.15,2013-05-07 08:55:00,
2013-05-07 02:00:00,58.6,54.4,29.89,SSE,168,0.0,0.0,86,0.00,,,0.00,Wunderground v.1.15,2013-05-07 09:00:00,
2013-05-07 02:10:00,58.9,55.0,29.89,SSE,168,1.0,1.0,87,0.00,,,0.00,Wunderground v.1.15,2013-05-07 09:10:00,
2013-05-07 02:15:00,58.9,55.0,29.89,South,171,1.0,1.0,87,0.00,,,0.00,Wunderground v.1.15,2013-05-07 09:15:00,
2013-05-07 02:25:00,59.0,55.1,29.89,South,169,0.0,0.0,87,0.00,,,0.00,Wunderground v.1.15,2013-05-07 09:25:00,
2013-05-07 02:35:00,58.9,54.7,29.89,ENE,61,1.0,1.0,86,0.00,,,0.00,Wunderground v.1.15,2013-05-07 09:35:00,
2013-05-07 02:40:00,58.6,54.4,29.89,ENE,61,0.0,1.0,86,0.00,,,0.00,Wunderground v.1.15,2013-05-07 09:40:00,
2013-05-07 02:50:00,57.8,53.0,29.88,ENE,61,0.0,0.0,84,0.00,,,0.00,Wunderground v.1.15,2013-05-07 09:50:00,
2013-05-07 02:55:00,57.8,53.0,29.88,ENE,61,0.0,0.0,84,0.00,,,0.00,Wunderground v.1.15,2013-05-07 09:55:00,
2013-05-07 03:05:00,57.8,52.3,29.88,ENE,61,0.0,0.0,82,0.00,,,0.00,Wunderground v.1.15,2013-05-07 10:05:00,
2013-05-07 03:10:00,57.8,52.3,29.88,ENE,61,0.0,0.0,82,0.00,,,0.00,Wunderground v.1.15,2013-05-07 10:10:00,
2013-05-07 03:16:00,57.7,52.2,29.88,ENE,61,0.0,0.0,82,0.00,,,0.00,Wunderground v.1.15,2013-05-07 10:16:00,
2013-05-07 03:30:00,57.4,51.3,29.88,ENE,61,0.0,0.0,80,0.00,,,0.00,Wunderground v.1.15,2013-05-07 10:30:00,
2013-05-07 03:45:00,57.4,51.3,29.87,ENE,61,0.0,0.0,80,0.00,,,0.00,Wunderground v.1.15,2013-05-07 10:45:00,
2013-05-07 03:50:00,57.2,51.1,29.87,ENE,61,0.0,0.0,80,0.00,,,0.00,Wunderground v.1.15,2013-05-07 10:50:00,
2013-05-07 04:00:00,57.4,51.6,29.87,ENE,61,0.0,0.0,81,0.00,,,0.00,Wunderground v.1.15,2013-05-07 11:00:00,
2013-05-07 04:05:00,57.4,51.9,29.87,ENE,61,0.0,0.0,82,0.00,,,0.00,Wunderground v.1.15,2013-05-07 11:05:00,
2013-05-07 04:15:00,57.5,52.0,29.87,ENE,61,0.0,0.0,82,0.00,,,0.00,Wunderground v.1.15,2013-05-07 11:15:00,
2013-05-07 04:20:00,57.5,52.4,29.87,ENE,61,0.0,0.0,83,0.00,,,0.00,Wunderground v.1.15,2013-05-07 11:20:00,
2013-05-07 04:26:00,57.7,52.6,29.87,ENE,61,0.0,0.0,83,0.00,,,0.00,Wunderground v.1.15,2013-05-07 11:26:00,
2013-05-07 04:30:00,57.8,53.0,29.87,ENE,61,0.0,0.0,84,0.00,,,0.00,Wunderground v.1.15,2013-05-07 11:30:00,
2013-05-07 04:40:00,57.7,52.9,29.87,ENE,61,0.0,0.0,84,0.00,,,0.00,Wunderground v.1.15,2013-05-07 11:40:00,
2013-05-07 04:45:00,57.5,52.7,29.87,ENE,61,0.0,0.0,84,0.00,,,0.00,Wunderground v.1.15,2013-05-07 11:45:00,
2013-05-07 04:55:00,57.2,52.7,29.88,ENE,61,0.0,0.0,85,0.00,,,0.00,Wunderground v.1.15,2013-05-07 11:55:00,
2013-05-07 05:10:00,56.8,52.7,29.88,ENE,61,0.0,0.0,86,0.00,,,0.00,Wunderground v.1.15,2013-05-07 12:10:00,
2013-05-07 05:20:00,56.5,52.4,29.87,ENE,61,0.0,0.0,86,0.00,,,0.00,Wunderground v.1.15,2013-05-07 12:20:00,
2013-05-07 05:25:00,56.3,52.2,29.87,ENE,61,0.0,0.0,86,0.00,,,0.00,Wunderground v.1.15,2013-05-07 12:25:00,
2013-05-07 05:35:00,56.0,51.9,29.87,ENE,61,0.0,0.0,86,0.00,,,0.00,Wunderground v.1.15,2013-05-07 12:35:00,
2013-05-07 05:50:00,55.5,51.7,29.87,ENE,61,0.0,0.0,87,0.00,,,0.00,Wunderground v.1.15,2013-05-07 12:50:00,
2013-05-07 05:55:00,55.4,51.6,29.87,ENE,61,0.0,0.0,87,0.00,,,0.00,Wunderground v.1.15,2013-05-07 12:55:00,
2013-05-07 06:05:00,55.4,51.9,29.89,ENE,61,0.0,0.0,88,0.00,,,0.00,Wunderground v.1.15,2013-05-07 13:05:00,
2013-05-07 06:15:00,55.5,52.0,29.89,ENE,61,0.0,0.0,88,0.00,,,0.00,Wunderground v.1.15,2013-05-07 13:15:00,
2013-05-07 06:20:00,55.5,52.0,29.89,ENE,61,0.0,0.0,88,0.00,,,0.00,Wunderground v.1.15,2013-05-07 13:20:00,
2013-05-07 06:30:00,55.7,52.5,29.89,ENE,61,0.0,0.0,89,0.00,,,0.00,Wunderground v.1.15,2013-05-07 13:30:00,
2013-05-07 06:35:00,56.0,52.8,29.89,ENE,61,0.0,1.0,89,0.00,,,0.00,Wunderground v.1.15,2013-05-07 13:35:00,
2013-05-07 06:45:00,56.3,53.4,29.90,ENE,61,1.0,1.0,90,0.00,,,0.00,Wunderground v.1.15,2013-05-07 13:45:00,
2013-05-07 06:50:00,56.5,53.6,29.90,ENE,61,0.0,1.0,90,0.00,,,0.00,Wunderground v.1.15,2013-05-07 13:50:00,
2013-05-07 07:00:00,56.6,53.7,29.90,ENE,61,0.0,0.0,90,0.00,,,0.00,Wunderground v.1.15,2013-05-07 14:00:00,
2013-05-07 07:15:00,57.1,54.2,29.90,ENE,61,0.0,0.0,90,0.00,,,0.00,Wunderground v.1.15,2013-05-07 14:15:00,
2013-05-07 07:30:00,58.0,54.8,29.90,ENE,61,0.0,2.0,89,0.00,,,0.00,Wunderground v.1.15,2013-05-07 14:30:00,
2013-05-07 07:35:00,58.3,54.8,29.90,ENE,61,1.0,2.0,88,0.00,,,0.00,Wunderground v.1.15,2013-05-07 14:35:00,
2013-05-07 07:45:00,58.4,53.9,29.90,ENE,61,1.0,1.0,85,0.00,,,0.00,Wunderground v.1.15,2013-05-07 14:45:00,
2013-05-07 07:50:00,58.6,53.8,29.90,ENE,61,1.0,1.0,84,0.00,,,0.00,Wunderground v.1.15,2013-05-07 14:50:00,
2013-05-07 08:00:00,59.0,53.5,29.90,ENE,61,1.0,2.0,82,0.00,,,0.00,Wunderground v.1.15,2013-05-07 15:00:00,
2013-05-07 08:10:00,59.2,53.0,29.90,ENE,61,0.0,0.0,80,0.00,,,0.01,Wunderground v.1.15,2013-05-07 15:10:00,
2013-05-07 08:15:00,59.5,54.0,29.91,ENE,61,0.0,0.0,82,0.25,,,0.02,Wunderground v.1.15,2013-05-07 15:15:00,
2013-05-07 08:25:00,59.2,54.0,29.91,NW,311,1.0,3.0,83,0.74,,,0.14,Wunderground v.1.15,2013-05-07 15:25:00,
2013-05-07 08:30:00,58.4,52.9,29.92,WNW,295,3.0,3.0,82,0.89,,,0.24,Wunderground v.1.15,2013-05-07 15:30:00,
2013-05-07 08:35:00,57.1,52.0,29.92,WNW,295,3.0,3.0,83,0.20,,,0.26,Wunderground v.1.15,2013-05-07 15:35:00,
2013-05-07 08:45:00,56.3,51.8,29.92,North,0,1.0,2.0,85,0.07,,,0.27,Wunderground v.1.15,2013-05-07 15:45:00,
2013-05-07 08:50:00,56.3,52.2,29.92,North,7,1.0,2.0,86,0.07,,,0.27,Wunderground v.1.15,2013-05-07 15:50:00,
2013-05-07 09:05:00,57.4,54.2,29.92,North,7,1.0,1.0,89,0.00,,,0.27,Wunderground v.1.15,2013-05-07 16:05:00,
2013-05-07 09:10:00,57.5,54.3,29.92,North,7,1.0,1.0,89,0.00,,,0.27,Wunderground v.1.15,2013-05-07 16:10:00,
2013-05-07 09:20:00,57.4,54.2,29.93,North,7,1.0,1.0,89,0.00,,,0.27,Wunderground v.1.15,2013-05-07 16:20:00,
2013-05-07 09:35:00,57.8,55.2,29.93,North,7,0.0,0.0,91,0.00,,,0.27,Wunderground v.1.15,2013-05-07 16:35:00,
2013-05-07 09:45:00,58.0,55.4,29.93,North,7,0.0,1.0,91,0.00,,,0.27,Wunderground v.1.15,2013-05-07 16:45:00,
2013-05-07 09:55:00,58.1,55.5,29.92,North,7,0.0,1.0,91,0.00,,,0.27,Wunderground v.1.15,2013-05-07 16:55:00,
2013-05-07 10:00:00,58.3,55.7,29.92,North,7,0.0,0.0,91,0.00,,,0.27,Wunderground v.1.15,2013-05-07 17:00:00,
2013-05-07 10:10:00,58.4,55.5,29.93,North,7,0.0,0.0,90,0.00,,,0.27,Wunderground v.1.15,2013-05-07 17:10:00,
2013-05-07 10:15:00,58.6,56.0,29.93,North,7,0.0,0.0,91,0.00,,,0.27,Wunderground v.1.15,2013-05-07 17:15:00,
2013-05-07 10:25:00,58.1,55.2,29.93,SSE,148,1.0,2.0,90,0.00,,,0.27,Wunderground v.1.15,2013-05-07 17:25:00,
2013-05-07 10:30:00,58.4,55.5,29.93,SSE,148,1.0,2.0,90,0.00,,,0.27,Wunderground v.1.15,2013-05-07 17:30:00,
2013-05-07 10:45:00,58.3,54.1,29.93,SW,219,1.0,3.0,86,0.00,,,0.27,Wunderground v.1.15,2013-05-07 17:45:00,
2013-05-07 10:50:00,58.3,52.8,29.93,SW,219,1.0,3.0,82,0.00,,,0.27,Wunderground v.1.15,2013-05-07 17:50:00,
2013-05-07 10:55:00,58.4,51.6,29.93,SW,219,1.0,1.0,78,0.00,,,0.27,Wunderground v.1.15,2013-05-07 17:55:00,
2013-05-07 11:05:00,59.5,52.6,29.93,SW,215,1.0,3.0,78,0.00,,,0.27,Wunderground v.1.15,2013-05-07 18:05:00,
2013-05-07 11:10:00,59.8,52.2,29.93,South,182,2.0,5.0,76,0.00,,,0.27,Wunderground v.1.15,2013-05-07 18:10:00,
2013-05-07 11:25:00,60.5,50.7,29.93,SSW,202,4.0,4.0,70,0.00,,,0.27,Wunderground v.1.15,2013-05-07 18:25:00,
2013-05-07 11:30:00,61.2,51.3,29.93,SSW,210,4.0,4.0,70,0.00,,,0.27,Wunderground v.1.15,2013-05-07 18:30:00,
2013-05-07 11:41:00,63.7,53.3,29.93,SE,141,3.0,3.0,69,0.00,,,0.27,Wunderground v.1.15,2013-05-07 18:41:00,
2013-05-07 11:45:00,64.3,52.3,29.93,SSE,152,4.0,5.0,65,0.00,,,0.27,Wunderground v.1.15,2013-05-07 18:45:00,
2013-05-07 12:00:00,65.9,51.2,29.93,SSE,158,5.0,8.0,59,0.00,,,0.27,Wunderground v.1.15,2013-05-07 19:00:00,
2013-05-07 12:11:00,66.8,50.6,29.93,SE,136,5.0,6.0,56,0.00,,,0.27,Wunderground v.1.15,2013-05-07 19:11:00,
2013-05-07 12:15:00,66.8,49.1,29.92,SSW,203,5.0,6.0,53,0.00,,,0.27,Wunderground v.1.15,2013-05-07 19:15:00,
2013-05-07 12:20:00,67.1,49.9,29.92,SSW,208,5.0,6.0,54,0.00,,,0.27,Wunderground v.1.15,2013-05-07 19:20:00,
2013-05-07 12:30:00,67.6,49.3,29.92,SSE,148,4.0,5.0,52,0.00,,,0.27,Wunderground v.1.15,2013-05-07 19:30:00,
2013-05-07 12:45:00,68.4,49.0,29.92,WSW,239,5.0,5.0,50,0.00,,,0.27,Wunderground v.1.15,2013-05-07 19:45:00,
2013-05-07 12:55:00,68.9,50.0,29.92,SSW,192,6.0,7.0,51,0.00,,,0.27,Wunderground v.1.15,2013-05-07 19:55:00,
2013-05-07 13:05:00,68.9,50.0,29.91,SE,145,6.0,12.0,51,0.00,,,0.27,Wunderground v.1.15,2013-05-07 20:05:00,
2013-05-07 13:10:00,68.8,50.5,29.91,South,178,6.0,12.0,52,0.00,,,0.27,Wunderground v.1.15,2013-05-07 20:10:00,
2013-05-07 13:20:00,69.1,50.7,29.91,SW,219,6.0,11.0,52,0.00,,,0.27,Wunderground v.1.15,2013-05-07 20:20:00,
2013-05-07 13:25:00,68.6,51.3,29.91,SSE,167,6.0,11.0,54,0.00,,,0.27,Wunderground v.1.15,2013-05-07 20:25:00,
2013-05-07 13:40:00,68.6,49.7,29.91,West,267,8.0,10.0,51,0.00,,,0.27,Wunderground v.1.15,2013-05-07 20:40:00,
2013-05-07 13:45:00,68.3,49.5,29.91,South,175,9.0,10.0,51,0.00,,,0.27,Wunderground v.1.15,2013-05-07 20:45:00,
2013-05-07 13:55:00,68.6,50.3,29.91,South,176,8.0,8.0,52,0.00,,,0.27,Wunderground v.1.15,2013-05-07 20:55:00,
2013-05-07 14:00:00,68.8,49.4,29.91,SSW,212,8.0,13.0,50,0.00,,,0.27,Wunderground v.1.15,2013-05-07 21:00:00,
2013-05-07 14:10:00,68.3,49.5,29.91,SW,216,8.0,10.0,51,0.00,,,0.27,Wunderground v.1.15,2013-05-07 21:10:00,
2013-05-07 14:15:00,68.4,50.6,29.91,South,176,7.0,10.0,53,0.00,,,0.27,Wunderground v.1.15,2013-05-07 21:15:00,
2013-05-07 14:20:00,68.9,50.0,29.91,WSW,246,7.0,9.0,51,0.00,,,0.27,Wunderground v.1.15,2013-05-07 21:20:00,
2013-05-07 14:30:00,67.4,49.2,29.91,SW,223,10.0,13.0,52,0.00,,,0.27,Wunderground v.1.15,2013-05-07 21:30:00,
2013-05-07 14:35:00,67.3,50.1,29.91,SSW,203,9.0,13.0,54,0.00,,,0.27,Wunderground v.1.15,2013-05-07 21:35:00,
2013-05-07 14:45:00,67.3,50.1,29.91,SSW,200,9.0,9.0,54,0.00,,,0.27,Wunderground v.1.15,2013-05-07 21:45:00,
2013-05-07 14:50:00,67.6,49.9,29.91,WSW,257,8.0,9.0,53,0.00,,,0.27,Wunderground v.1.15,2013-05-07 21:50:00,
2013-05-07 15:00:00,67.6,49.9,29.90,South,181,9.0,9.0,53,0.00,,,0.27,Wunderground v.1.15,2013-05-07 22:00:00,
2013-05-07 15:05:00,67.6,50.9,29.90,SSE,151,10.0,10.0,55,0.00,,,0.27,Wunderground v.1.15,2013-05-07 22:05:00,
2013-05-07 15:16:00,68.1,51.3,29.90,SSW,202,9.0,12.0,55,0.00,,,0.27,Wunderground v.1.15,2013-05-07 22:16:00,
2013-05-07 15:20:00,67.9,51.6,29.90,South,182,9.0,12.0,56,0.00,,,0.27,Wunderground v.1.15,2013-05-07 22:20:00,
2013-05-07 15:25:00,67.1,49.9,29.90,SW,227,10.0,12.0,54,0.00,,,0.27,Wunderground v.1.15,2013-05-07 22:25:00,
2013-05-07 15:35:00,66.9,50.7,29.90,SW,223,10.0,11.0,56,0.00,,,0.27,Wunderground v.1.15,2013-05-07 22:35:00,
2013-05-07 15:50:00,67.8,47.9,29.90,SW,230,9.0,16.0,49,0.00,,,0.27,Wunderground v.1.15,2013-05-07 22:50:00,
2013-05-07 15:55:00,67.6,49.3,29.90,SSW,209,9.0,16.0,52,0.00,,,0.27,Wunderground v.1.15,2013-05-07 22:55:00,
2013-05-07 16:05:00,67.9,49.1,29.89,SSW,206,9.0,9.0,51,0.00,,,0.27,Wunderground v.1.15,2013-05-07 23:05:00,
2013-05-07 16:10:00,67.9,50.1,29.89,South,184,9.0,9.0,53,0.00,,,0.27,Wunderground v.1.15,2013-05-07 23:10:00,
2013-05-07 16:20:00,67.6,49.3,29.89,SW,227,9.0,13.0,52,0.00,,,0.27,Wunderground v.1.15,2013-05-07 23:20:00,
2013-05-07 16:25:00,67.4,49.7,29.89,SW,220,8.0,13.0,53,0.00,,,0.27,Wunderground v.1.15,2013-05-07 23:25:00,
2013-05-07 16:40:00,66.3,49.6,29.89,SSW,209,10.0,10.0,55,0.00,,,0.27,Wunderground v.1.15,2013-05-07 23:40:00,
2013-05-07 16:45:00,66.6,50.4,29.89,SSW,203,9.0,10.0,56,0.00,,,0.27,Wunderground v.1.15,2013-05-07 23:45:00,
2013-05-07 16:55:00,66.3,51.5,29.89,SSE,155,10.0,14.0,59,0.00,,,0.27,Wunderground v.1.15,2013-05-07 23:55:00,
2013-05-07 17:00:00,66.4,51.2,29.89,SW,217,9.0,16.0,58,0.00,,,0.27,Wunderground v.1.15,2013-05-08 00:00:00,
2013-05-07 17:10:00,66.6,48.9,29.89,SW,234,7.0,12.0,53,0.00,,,0.27,Wunderground v.1.15,2013-05-08 00:10:00,
2013-05-07 17:15:00,66.3,49.6,29.89,WSW,239,9.0,16.0,55,0.00,,,0.27,Wunderground v.1.15,2013-05-08 00:15:00,
2013-05-07 17:25:00,65.8,50.1,29.89,SW,223,10.0,12.0,57,0.00,,,0.27,Wunderground v.1.15,2013-05-08 00:25:00,
2013-05-07 17:35:00,65.4,49.3,29.89,SW,215,10.0,10.0,56,0.00,,,0.27,Wunderground v.1.15,2013-05-08 00:35:00,
2013-05-07 17:40:00,65.9,49.3,29.89,South,182,8.0,10.0,55,0.00,,,0.27,Wunderground v.1.15,2013-05-08 00:40:00,
2013-05-07 17:50:00,66.4,48.2,29.89,WSW,243,8.0,8.0,52,0.00,,,0.27,Wunderground v.1.15,2013-05-08 00:50:00,
2013-05-07 18:05:00,66.6,50.4,29.89,SSW,210,7.0,7.0,56,0.00,,,0.27,Wunderground v.1.15,2013-05-08 01:05:00,
2013-05-07 18:10:00,66.3,50.1,29.89,WSW,243,7.0,8.0,56,0.00,,,0.27,Wunderground v.1.15,2013-05-08 01:10:00,
2013-05-07 18:20:00,65.4,49.8,29.89,SW,227,9.0,11.0,57,0.00,,,0.27,Wunderground v.1.15,2013-05-08 01:20:00,
2013-05-07 18:25:00,64.9,49.8,29.89,SW,215,8.0,11.0,58,0.00,,,0.27,Wunderground v.1.15,2013-05-08 01:25:00,
2013-05-07 18:35:00,65.1,49.0,29.89,WSW,250,6.0,6.0,56,0.00,,,0.27,Wunderground v.1.15,2013-05-08 01:35:00,
2013-05-07 18:40:00,65.3,48.2,29.89,SW,217,5.0,6.0,54,0.00,,,0.27,Wunderground v.1.15,2013-05-08 01:40:00,
2013-05-07 18:50:00,65.1,48.5,29.89,SSW,212,6.0,9.0,55,0.00,,,0.27,Wunderground v.1.15,2013-05-08 01:50:00,
2013-05-07 18:55:00,64.9,48.3,29.89,SSW,196,6.0,9.0,55,0.00,,,0.27,Wunderground v.1.15,2013-05-08 01:55:00,
2013-05-07 19:00:00,64.8,48.7,29.89,SW,227,6.0,6.0,56,0.00,,,0.27,Wunderground v.1.15,2013-05-08 02:00:00,
2013-05-07 19:10:00,64.1,48.1,29.89,WSW,239,5.0,5.0,56,0.00,,,0.27,Wunderground v.1.15,2013-05-08 02:10:00,
2013-05-07 19:15:00,64.0,48.5,29.89,SW,215,5.0,6.0,57,0.00,,,0.27,Wunderground v.1.15,2013-05-08 02:15:00,
2013-05-07 19:25:00,63.7,49.1,29.90,SW,233,4.0,4.0,59,0.00,,,0.27,Wunderground v.1.15,2013-05-08 02:25:00,
2013-05-07 19:30:00,63.5,48.5,29.90,SW,215,4.0,5.0,58,0.00,,,0.27,Wunderground v.1.15,2013-05-08 02:30:00,
2013-05-07 19:45:00,63.2,48.6,29.90,WSW,253,2.0,2.0,59,0.00,,,0.27,Wunderground v.1.15,2013-05-08 02:45:00,
2013-05-07 19:50:00,63.0,47.1,29.90,WNW,282,1.0,2.0,56,0.00,,,0.27,Wunderground v.1.15,2013-05-08 02:50:00,
2013-05-07 20:00:00,62.8,47.3,29.90,WNW,302,4.0,4.0,57,0.00,,,0.27,Wunderground v.1.15,2013-05-08 03:00:00,
2013-05-07 20:05:00,62.7,47.2,29.90,West,267,4.0,4.0,57,0.00,,,0.27,Wunderground v.1.15,2013-05-08 03:05:00,
2013-05-07 20:15:00,62.4,47.4,29.91,WNW,282,4.0,6.0,58,0.00,,,0.27,Wunderground v.1.15,2013-05-08 03:15:00,
2013-05-07 20:20:00,62.2,48.1,29.91,West,268,5.0,6.0,60,0.00,,,0.27,Wunderground v.1.15,2013-05-08 03:20:00,
2013-05-07 20:25:00,62.2,48.6,29.91,WSW,256,5.0,6.0,61,0.00,,,0.27,Wunderground v.1.15,2013-05-08 03:25:00,
2013-05-07 20:35:00,61.9,49.2,29.91,West,265,4.0,5.0,63,0.00,,,0.27,Wunderground v.1.15,2013-05-08 03:35:00,
2013-05-07 20:40:00,61.7,48.5,29.91,WNW,282,3.0,5.0,62,0.00,,,0.27,Wunderground v.1.15,2013-05-08 03:40:00,
2013-05-07 20:55:00,61.4,48.7,29.92,West,267,4.0,4.0,63,0.00,,,0.27,Wunderground v.1.15,2013-05-08 03:55:00,
2013-05-07 21:00:00,61.4,48.7,29.92,WNW,294,4.0,4.0,63,0.00,,,0.27,Wunderground v.1.15,2013-05-08 04:00:00,
2013-05-07 21:10:00,61.2,48.5,29.92,West,264,3.0,3.0,63,0.00,,,0.27,Wunderground v.1.15,2013-05-08 04:10:00,
2013-05-07 21:15:00,61.2,48.9,29.92,West,272,3.0,4.0,64,0.00,,,0.27,Wunderground v.1.15,2013-05-08 04:15:00,
2013-05-07 21:25:00,60.9,49.1,29.92,WSW,254,3.0,3.0,65,0.00,,,0.27,Wunderground v.1.15,2013-05-08 04:25:00,
2013-05-07 21:30:00,60.9,49.5,29.93,West,278,4.0,6.0,66,0.00,,,0.27,Wunderground v.1.15,2013-05-08 04:30:00,
2013-05-07 21:40:00,60.6,50.4,29.93,West,263,3.0,3.0,69,0.00,,,0.27,Wunderground v.1.15,2013-05-08 04:40:00,
2013-05-07 21:45:00,60.6,50.8,29.93,WSW,258,3.0,4.0,70,0.00,,,0.27,Wunderground v.1.15,2013-05-08 04:45:00,
2013-05-07 21:50:00,60.5,51.0,29.93,WSW,257,3.0,3.0,71,0.00,,,0.27,Wunderground v.1.15,2013-05-08 04:50:00,
2013-05-07 22:00:00,60.5,52.2,29.94,West,265,3.0,3.0,74,0.00,,,0.27,Wunderground v.1.15,2013-05-08 05:00:00,
2013-05-07 22:05:00,60.3,52.0,29.94,West,270,3.0,3.0,74,0.00,,,0.27,Wunderground v.1.15,2013-05-08 05:05:00,
2013-05-07 22:10:00,60.3,52.0,29.94,West,270,2.0,2.0,74,0.00,,,0.27,Wunderground v.1.15,2013-05-08 05:10:00,
2013-05-07 22:20:00,60.0,51.7,29.94,West,270,1.0,1.0,74,0.00,,,0.27,Wunderground v.1.15,2013-05-08 05:20:00,
2013-05-07 22:25:00,59.8,51.5,29.94,WSW,244,2.0,2.0,74,0.00,,,0.27,Wunderground v.1.15,2013-05-08 05:25:00,
2013-05-07 22:35:00,60.0,51.7,29.95,WSW,244,2.0,2.0,74,0.00,,,0.27,Wunderground v.1.15,2013-05-08 05:35:00,
2013-05-07 22:40:00,60.0,51.7,29.95,WSW,246,1.0,2.0,74,0.00,,,0.27,Wunderground v.1.15,2013-05-08 05:40:00,
2013-05-07 22:50:00,60.0,51.7,29.95,WSW,246,0.0,1.0,74,0.00,,,0.27,Wunderground v.1.15,2013-05-08 05:50:00,
2013-05-07 22:55:00,60.0,52.1,29.95,WSW,246,1.0,2.0,75,0.00,,,0.27,Wunderground v.1.15,2013-05-08 05:55:00,
2013-05-07 23:00:00,60.0,52.1,29.95,WSW,246,1.0,2.0,75,0.00,,,0.27,Wunderground v.1.15,2013-05-08 06:00:00,
2013-05-07 23:10:00,60.0,52.1,29.95,WSW,246,1.0,1.0,75,0.00,,,0.27,Wunderground v.1.15,2013-05-08 06:10:00,
2013-05-07 23:15:00,60.0,52.1,29.95,WSW,246,0.0,1.0,75,0.00,,,0.27,Wunderground v.1.15,2013-05-08 06:15:00,
2013-05-07 23:25:00,59.8,51.9,29.95,WSW,246,1.0,1.0,75,0.00,,,0.27,Wunderground v.1.15,2013-05-08 06:25:00,
2013-05-07 23:30:00,59.7,51.8,29.96,WSW,244,1.0,1.0,75,0.00,,,0.27,Wunderground v.1.15,2013-05-08 06:30:00,
2013-05-07 23:40:00,59.4,51.5,29.96,WSW,246,0.0,0.0,75,0.00,,,0.27,Wunderground v.1.15,2013-05-08 06:40:00,
2013-05-07 23:45:00,59.2,51.6,29.96,WSW,246,0.0,0.0,76,0.00,,,0.27,Wunderground v.1.15,2013-05-08 06:45:00,
2013-05-07 23:50:00,58.9,51.3,29.96,WSW,246,0.0,0.0,76,0.00,,,0.27,Wunderground v.1.15,2013-05-08 06:50:00,